This is the latest recevied weather packets stored in our database for station/object HEBOWX. If no packets are shown the sender has not sent any weather packets the latest 1 day(s).
| Time | Temp. | Humidity | Pressure | Rain* | Wind** | Luminosity | Snow |
|---|---|---|---|---|---|---|---|
| 1778098232 | 13.33° C | 48% | 1017.9 hPa | 0 mm | - | - | - |
| 1778097932 | 13.33° C | 55% | 1017.7 hPa | 0 mm | - | - | - |
| 1778095533 | 12.78° C | 57% | 1017.9 hPa | 0 mm | - | - | - |
| 1778093132 | 12.78° C | 57% | 1017.7 hPa | 0 mm | - | - | - |
| 1778091934 | 12.78° C | 57% | 1017.6 hPa | 0 mm | - | - | - |
| 1778090732 | 12.78° C | 58% | 1017.4 hPa | 0 mm | - | - | - |
| 1778090433 | 13.33° C | 58% | 1017.4 hPa | 0 mm | - | - | - |
| 1778090134 | 13.33° C | 58% | 1017.4 hPa | 0 mm | - | - | - |
| 1778089832 | 13.33° C | 58% | 1017.3 hPa | 0 mm | - | - | - |
| 1778087732 | 12.78° C | 60% | 1017.2 hPa | 0 mm | - | - | - |
| 1778087433 | 12.78° C | 60% | 1017.2 hPa | 0 mm | - | - | - |
| 1778084433 | 12.78° C | 61% | 1017 hPa | 0 mm | - | - | - |
| 1778083832 | 12.22° C | 63% | 1017 hPa | 0 mm | - | - | - |
| 1778082934 | 12.22° C | 65% | 1016.9 hPa | 0 mm | - | - | - |
| 1778081432 | 11.67° C | 66% | 1016.9 hPa | 0 mm | - | - | - |
| 1778080832 | 11.11° C | 70% | 1016.7 hPa | 0 mm | - | - | - |
| 1778080232 | 10.56° C | 70% | 1016.5 hPa | 0 mm | - | - | - |
| 1778077234 | 8.89° C | 71% | 1016.3 hPa | 0 mm | - | - | - |
| 1778076632 | 8.89° C | 69% | 1016.2 hPa | 0 mm | - | - | - |
| 1778073632 | 9.44° C | 57% | 1015.6 hPa | 0 mm | - | - | - |
| 1778070931 | 10° C | 54% | 1015.5 hPa | 0 mm | - | - | - |
| 1778069432 | 10° C | 60% | 1015.3 hPa | 0 mm | - | - | - |
| 1778068533 | 9.44° C | 61% | 1015.2 hPa | 0 mm | - | - | - |
| 1778067931 | 9.44° C | 65% | 1015.3 hPa | 0 mm | - | - | - |
| 1778067331 | 8.89° C | 62% | 1015.3 hPa | 0 mm | - | - | - |
* Rain latest hour (hover to see other rain measurements)
** Current wind speed in m/s (hover to see current wind gust speed)